Regional Weather Roundup
Issued by NWS

Home | Current Version | Previous Version | Graphics & Text | Print | Product List | Glossary On
Versions: 1 2 3 4 5 6 7 8 9 10 11 12 13 14 15 16 17 18 19 20 21 22 23 24 25 26 27 28 29 30 31 32 33 34 35 36 37 38 39 40 41 42 43 44 45 46 47 48 49 50
000
ASUS43 KIND 270159
RWRIN

WEATHER ROUNDUP FOR INDIANA
NATIONAL WEATHER SERVICE INDIANAPOLIS IN
1000 PM EDT THU MAR 26 2015

NOTE: "FAIR" INDICATES FEW OR NO CLOUDS BELOW 12,000 FEET WITH NO
SIGNIFICANT WEATHER AND/OR OBSTRUCTIONS TO VISIBILITY.

* - STATION DOES NOT REPORT WEATHER SUCH AS PRECIPITATION OR FOG.

+ - STATION NOT QUALITY CONTROLLED BY THE NATIONAL WEATHER SERVICE.
    USE DATA WITH CAUTION...ESPECIALLY DEWPOINT AND RELATIVE
    HUMIDITY OBSERVATIONS.

INZ001>003-010>013-019-020-270300-
NORTHWEST INDIANA

CITY           SKY/WX    TMP DP  RH WIND       PRES   REMARKS

$$

LMZ046-743>745-270300-
SOUTHERN LAKE MICHIGAN

STATION/POSITION TIME  TEMP WIND        PRES
                       AIR  DIR/SP/G
                 (UTC) (F)  (DEG/KT/KT) (MB)
BURNS HARBOR     0100   35   30/  9/ 12 1017.3R
MICHIGAN CITY    0100   33  340/ 16/ 18   N/A

$$

INZ004-005-014>016-021>024-270300-
NORTH CENTRAL INDIANA

CITY           SKY/WX    TMP DP  RH WIND       PRES   REMARKS
GOSHEN         CLOUDY    32  24  72 NW9       30.00R WCI  24
PERU/GRISSOM   CLOUDY    37  26  63 N9        29.98R
SOUTH BEND     CLOUDY    34  25  69 N9        30.02R WCI  27

$$

INZ006>009-017-018-025>027-270300-
NORTHEAST INDIANA

CITY           SKY/WX    TMP DP  RH WIND       PRES   REMARKS
ANGOLA *+      CLOUDY    34  25  69 NW8       29.96R WCI  27
FORT WAYNE     MOCLDY    34  24  67 NW7       29.98R WCI  28

$$

INZ028-029-035-036-043>045-051>053-270300-
WEST CENTRAL INDIANA

CITY           SKY/WX    TMP DP  RH WIND       PRES   REMARKS
CRAWFORDSVL +  FAIR      35  23  61 MISG      30.01R
GREENCASTLE +  CLEAR     37  27  65 NW9       29.99S
LAFAYETTE      CLEAR     36  24  62 NW12      30.02R
TERRE HAUTE    CLEAR     41  29  62 N9        30.01R

$$

INZ030>032-037>040-046>048-054>057-064-065-270300-
CENTRAL INDIANA

CITY           SKY/WX    TMP DP  RH WIND       PRES   REMARKS
COLUMBUS       PTCLDY    37  30  75 W3        29.99R
GREENWOOD *+   CLEAR     39  27  60 NW8       29.98R
INDIANAPOLIS   PTCLDY    37  28  70 NW7       29.96S
-EAGLE CREEK   CLEAR     38  29  70 NW9       29.97R
KOKOMO *+        N/A     37  27  65 N7        29.99R
MT COMFORT *+  CLEAR     37  23  56 NW8       29.97S
SHELBYVILLE    PTCLDY    40  30  67 NW5       29.97R

$$

INZ033-034-041-042-049-050-058-059-270300-
EAST CENTRAL INDIANA

CITY           SKY/WX    TMP DP  RH WIND       PRES   REMARKS
MUNCIE         MOCLDY    36  28  73 N6        29.97R

$$

INZ060-061-067>069-081>083-085>088-270300-
SOUTHWEST INDIANA

CITY           SKY/WX    TMP DP  RH WIND       PRES   REMARKS
EVANSVILLE     PTCLDY    41  33  73 W3        30.04R
HUNTINGBURG *+ PTCLDY    39  30  70 NW5       30.02R

$$

INZ062-063-066-070>080-084-089>092-270300-
SOUTH CENTRAL AND SOUTHEAST INDIANA

CITY           SKY/WX    TMP DP  RH WIND       PRES   REMARKS
BLOOMINGTON    PTCLDY    35  30  82 CALM      29.98S
SEYMOUR +      CLOUDY    41  34  75 CALM      30.00R

$$




USA.gov is the U.S. government's official web portal to all federal, state and local government web resources and services.